Location: Boiro
(42.6475°N, 8.8834°W)
Time: 06:56:57
(UTC+01:00)

CUTE-I - Visible Passes

Search period start: 25 January 2022 00:00
Search period end: 04 February 2022 00:00
Orbit: 810 x 825 km, 98.7° (Epoch: 24 January)

Date Brightness Start Highest point End Pass type
(mag) Time Alt. Az. Time Alt. Az. Time Alt. Az.
25 Jan ? 06:36:14 10° ENE 06:38:57 14° E 06:41:39 10° ESE visible
25 Jan ? 08:14:13 10° N 08:19:32 75° WNW 08:24:49 10° SSW visible
25 Jan ? 19:36:58 10° S 19:42:02 43° W 19:47:08 10° NNW visible
26 Jan ? 07:52:39 10° NNE 07:57:58 71° ESE 08:03:14 10° S visible
26 Jan ? 19:15:04 10° S 19:20:23 68° WSW 19:25:44 10° NNW visible
27 Jan ? 07:31:13 10° NNE 07:36:19 45° E 07:41:23 10° S visible
27 Jan ? 20:36:56 10° WSW 20:39:26 13° W 20:41:57 10° WNW visible
28 Jan ? 07:10:01 10° NE 07:14:37 29° E 07:19:11 10° SSE visible
28 Jan ? 20:13:37 10° SW 20:17:36 21° W 20:21:37 10° NW visible
29 Jan ? 06:49:09 10° NE 06:52:50 19° E 06:56:31 10° SE visible
29 Jan ? 19:51:05 10° SSW 19:55:51 33° W 20:00:38 10° NNW visible
30 Jan ? 06:29:12 10° ENE 06:30:59 12° E 06:32:45 10° ESE visible
30 Jan ? 08:06:21 10° NNE 08:11:41 87° WNW 08:16:59 10° SSW visible
30 Jan ? 19:28:58 10° S 19:34:09 51° W 19:39:22 10° NNW visible
31 Jan ? 07:44:49 10° NNE 07:50:05 61° ESE 07:55:19 10° S visible
31 Jan ? 19:07:11 10° S 19:12:32 79° WSW 19:17:54 10° NNW visible
01 Feb ? 07:23:28 10° NNE 07:28:26 39° E 07:33:20 10° SSE visible
01 Feb ? 20:28:18 10° SW 20:31:29 16° W 20:34:39 10° NW visible
02 Feb ? 07:02:22 10° NE 07:06:41 25° E 07:10:59 10° SSE visible
02 Feb ? 20:05:21 10° SSW 20:09:40 25° W 20:14:00 10° NW visible
03 Feb ? 06:41:41 10° NE 06:44:53 16° E 06:48:03 10° SE visible
03 Feb ? 19:42:59 10° SSW 19:47:56 38° W 19:52:54 10° NNW visible
